Flag for U.S.A. Weather past 2 weeks in Montpelier, Vermont, U.S.A.

Now
47 °F

Overcast.


Feels Like: 42 °F
Forecast: 44 / 48 °F
Wind: 12 mph from North

Location: Knapp State Airport

Current Time: Oct 23, 2014 at 12:51:07 AM

Latest Report: Oct 22, 2014 at 11:51 PM


Visibility: 10 mi

Pressure: 30.06 "Hg

Humidity: 77%

Dew point: 40 °F

Location of MontpelierLocation

Historic Weather in Montpelier — Graph

°F

Montpelier temperature yesterday

Maximum temperature yesterday: 51 °F (at 11:51 AM)
Minimum temperature yesterday: 44 °F (at 8:01 AM)
Average temperature yesterday: 47 °F

Past Weeks' High & Low Weather Summary

 TemperatureHumidityPressure
High75 °F (Oct 14, 2:51 PM)100% (Oct 11, 6:51 AM)30.37 "Hg (Oct 11, 6:51 AM)
Low28 °F (Oct 13, 4:51 AM)37% (Oct 12, 4:51 PM)29.54 "Hg (Oct 18, 1:51 PM)
Average50 °F79%29.99 "Hg
* Reported Oct 7 10:51 PM — Oct 22 10:51 PM, Montpelier, Weather by CustomWeather, © 2014

Note: Actual official high and low records may vary slightly from our data, if they occured in-between our weather recording intervals... More about our weather records

Advertising

Montpelier weather history for previous 24 hours

 ConditionsComfort  
Time TempWeatherWind HumidityBarometerVisibility
10:51 PM
Oct 22
47 °FOvercast.5 mph80%30.10 "Hg10 mi
9:51 PM48 °FOvercast.8 mph77%30.13 "Hg10 mi
8:51 PM48 °FOvercast.5 mph80%30.13 "Hg10 mi
7:51 PM48 °FLight rain. Overcast.9 mph80%30.15 "Hg10 mi
6:51 PM48 °FLight rain. Overcast.7 mph80%30.16 "Hg10 mi
5:51 PM48 °FLight rain. Mostly cloudy.8 mph80%30.16 "Hg10 mi
4:51 PM48 °FOvercast.7 mph86%30.16 "Hg10 mi
3:51 PM48 °FMore clouds than sun.9 mph89%30.17 "Hg10 mi
2:51 PM47 °FLight rain. Overcast.8 mph93%30.18 "Hg10 mi
1:59 PM47 °FLight rain. Overcast.9 mph93%30.16 "Hg10 mi
12:51 PM48 °FOvercast.7 mph89%30.20 "Hg10 mi
11:51 AM51 °FMostly cloudy.7 mph80%30.21 "Hg10 mi
10:51 AM49 °FOvercast.5 mph93%30.22 "Hg10 mi
9:51 AM46 °FMostly cloudy.6 mph96%30.23 "Hg10 mi
8:51 AM45 °FOvercast.5 mph97%30.22 "Hg10 mi
8:01 AM44 °FMostly cloudy.3 mph100%30.18 "Hg10 mi
6:51 AM45 °FLight rain. Fog.3 mph97%30.18 "Hg6 mi
5:51 AM45 °FOvercast.5 mph97%30.17 "Hg9 mi
4:51 AM45 °FOvercast.3 mph97%30.16 "Hg10 mi
3:51 AM45 °FOvercast.5 mph97%30.14 "Hg10 mi
2:51 AM45 °FOvercast.3 mph97%30.14 "Hg10 mi
1:51 AM45 °FMostly cloudy.6 mph97%30.14 "Hg10 mi
12:51 AM45 °FMostly cloudy.3 mph100%30.14 "Hg9 mi
Weather by CustomWeather, © 2014

See weather overviewHow to use our weather pages